CW5478 Weather Reports


Display with metric or nautical units.
time (UTC)temp
F
wind
direction
speed
MPH
gust
MPH
rain 1hr
in
rain 24hr
in
rain mn
in
humidity
%
barometer
mb
20260505153304 39 0 6.0 8.0 0.00 0.00 0.00 76 1018.4
20260505152803 39 324 6.0 8.0 0.00 0.00 0.00 76 1018.3
20260505152305 39 322 6.0 8.0 0.00 0.00 0.00 77 1018.2
20260505151804 39 337 6.0 8.0 0.00 0.00 0.00 77 1018.6
20260505151304 39 359 6.0 8.0 0.00 0.00 0.00 78 1018.6
20260505150804 39 315 6.0 8.0 0.00 0.00 0.00 77 1018.3
20260505150304 39 0 6.0 8.0 0.00 0.00 0.00 77 1018.6
20260505140303 40 357 6.0 10.0 0.00 0.00 0.00 76 1018.7
20260505124803 37 315 3.0 7.0 0.00 0.00 0.00 81 1018.2
20260505124302 37 270 3.0 5.0 0.00 0.00 0.00 82 1018.2
20260505123303 36 270 3.0 5.0 0.00 0.00 0.00 82 1017.9
20260505122802 36 270 3.0 5.0 0.00 0.00 0.00 83 1017.9
20260505122305 36 270 5.0 6.0 0.00 0.00 0.00 83 1017.9
20260505121802 36 315 5.0 7.0 0.00 0.00 0.00 83 1017.9
20260505121302 36 315 5.0 8.0 0.00 0.00 0.00 83 1018.0
20260505120802 36 315 6.0 9.0 0.00 0.00 0.00 82 1017.9
20260505120302 36 315 6.0 8.0 0.00 0.00 0.00 81 1017.9
20260505115803 37 315 7.0 12.0 0.00 0.00 0.00 80 1018.2
20260505115304 37 315 7.0 10.0 0.00 0.00 0.00 79 1017.9
20260505114803 37 318 5.0 9.0 0.00 0.00 0.00 78 1017.9
20260505113802 37 270 8.0 10.0 0.00 0.00 0.00 77 1017.9
20260505113302 38 292 7.0 10.0 0.00 0.00 0.00 76 1017.9
20260505112802 38 324 6.0 8.0 0.00 0.00 0.00 74 1017.9
20260505112304 38 315 6.0 8.0 0.00 0.00 0.00 73 1017.9
20260505111802 39 315 5.0 7.0 0.00 0.00 0.00 72 1017.6
20260505111302 39 315 6.0 7.0 0.00 0.00 0.00 72 1017.7
20260505110802 39 292 5.0 6.0 0.00 0.00 0.00 72 1017.9
20260505110302 39 292 3.0 5.0 0.00 0.00 0.00 72 1017.9
20260505101303 39 292 6.0 8.0 0.00 0.00 0.00 74 1018.2
20260505100302 38 270 3.0 6.0 0.00 0.00 0.00 74 1018.0
20260505095802 38 270 6.0 6.0 0.00 0.00 0.00 75 1018.3
20260505095304 38 270 3.0 5.0 0.00 0.00 0.00 75 1018.3
20260505094803 38 270 3.0 5.0 0.00 0.00 0.00 75 1018.6
20260505094303 38 292 3.0 5.0 0.00 0.00 0.00 74 1018.6
20260505093802 39 315 3.0 7.0 0.00 0.00 0.00 74 1018.6
20260505093302 39 334 5.0 6.0 0.00 0.00 0.00 73 1018.6
20260505092802 39 315 5.0 6.0 0.00 0.00 0.00 71 1018.6
20260505092305 39 359 5.0 7.0 0.00 0.00 0.00 71 1018.6
20260505091803 40 292 6.0 8.0 0.00 0.00 0.00 70 1018.6
20260505091302 40 311 6.0 8.0 0.00 0.00 0.00 70 1018.6
20260505090802 40 279 5.0 6.0 0.00 0.00 0.00 70 1018.6
20260505085802 40 225 4.0 5.0 0.00 0.00 0.00 69 1018.6
20260505085304 40 225 4.0 7.0 0.00 0.00 0.00 69 1018.6
20260505084802 40 225 6.0 8.0 0.00 0.00 0.00 69 1018.6
20260505084302 40 225 3.0 5.0 0.00 0.00 0.00 69 1018.6
20260505083802 40 225 5.0 6.0 0.00 0.00 0.00 69 1018.6
20260505083303 40 180 1.0 5.0 0.00 0.00 0.00 69 1018.7
20260505082803 40 180 4.0 6.0 0.00 0.00 0.00 68 1018.6
20260505082304 40 135 3.0 5.0 0.00 0.00 0.00 67 1018.9
20260505081802 41 103 3.0 5.0 0.00 0.00 0.00 67 1018.9
20260505081302 41 135 5.0 6.0 0.00 0.00 0.00 67 1018.9
20260505080803 42 180 2.0 5.0 0.00 0.00 0.00 65 1018.9
20260505080302 42 45 1.0 5.0 0.00 0.00 0.00 64 1018.6
20260505075803 42 270 6.0 7.0 0.00 0.00 0.00 64 1018.6
20260505074803 43 247 7.0 8.0 0.00 0.00 0.00 63 1018.9
20260505074302 43 270 4.0 8.0 0.00 0.00 0.00 63 1018.9
20260505073803 43 270 5.0 8.0 0.00 0.00 0.00 64 1018.9
20260505073303 43 270 7.0 9.0 0.00 0.00 0.00 63 1018.9
20260505072304 44 270 5.0 6.0 0.00 0.00 0.00 61 1018.9
20260505071802 44 270 6.0 7.0 0.00 0.00 0.00 61 1019.0
20260505071303 44 270 4.0 6.0 0.00 0.00 0.00 61 1019.3
20260505070803 43 270 6.0 8.0 0.00 0.00 0.00 63 1019.3
20260505065803 42 270 4.0 8.0 0.00 0.00 0.00 64 1019.2
20260505065303 42 270 6.0 8.0 0.00 0.00 0.00 64 1018.9
20260505064802 43 270 5.0 9.0 0.00 0.00 0.00 64 1019.2
20260505064303 43 270 8.0 10.0 0.00 0.00 0.00 65 1019.2
20260505063803 43 247 6.0 8.0 0.00 0.00 0.00 65 1019.2
20260505063303 43 247 6.0 8.0 0.00 0.00 0.00 65 1019.0
20260505062802 42 247 6.0 8.0 0.00 0.00 0.00 67 1019.0
20260505062304 42 225 7.0 8.0 0.00 0.00 0.00 68 1019.3
20260505061803 43 247 7.0 8.0 0.00 0.00 0.00 68 1019.3
20260505061302 43 270 6.0 7.0 0.00 0.00 0.00 68 1019.3
20260505060902 43 247 6.0 7.0 0.00 0.00 0.00 68 1019.3
20260505060303 43 253 5.0 6.0 0.00 0.00 0.00 68 1019.3
20260505055803 43 303 2.0 3.0 0.00 0.00 0.00 67 1019.3
20260505055304 44 346 1.0 2.0 0.00 0.00 0.00 67 1019.3
20260505054802 44 0 2.0 6.0 0.00 0.00 0.00 66 1019.3
20260505054303 45 0 6.0 8.0 0.00 0.00 0.00 64 1019.3
20260505053802 46 260 6.0 7.0 0.00 0.00 0.00 62 1019.3
20260505053303 46 270 6.0 7.0 0.00 0.00 0.00 60 1019.3
20260505052803 46 287 5.0 7.0 0.00 0.00 0.00 59 1019.3
20260505052304 46 315 5.0 8.0 0.00 0.00 0.00 60 1019.3
20260505051802 46 315 6.0 8.0 0.00 0.00 0.00 61 1019.3
20260505051302 46 270 5.0 9.0 0.00 0.00 0.00 62 1019.3
20260505050303 46 270 7.0 8.0 0.00 0.00 0.00 60 1019.3
20260505040802 47 270 7.0 13.0 0.00 0.00 0.00 59 1019.3
20260505040302 47 270 9.0 13.0 0.00 0.00 0.00 61 1019.3
20260505035802 46 225 9.0 10.0 0.00 0.00 0.00 62 1019.3
20260505035304 46 225 7.0 9.0 0.00 0.00 0.00 62 1019.3
20260505034303 47 225 7.0 9.0 0.00 0.00 0.00 60 1018.9
20260505033803 47 225 7.0 9.0 0.00 0.00 0.00 61 1018.9
20260505033302 46 225 9.0 12.0 0.00 0.00 0.00 64 1018.9
20260505032802 46 225 8.0 10.0 0.00 0.00 0.00 65 1018.9
20260505032304 46 225 6.0 9.0 0.00 0.00 0.00 65 1018.9
20260505031803 46 225 6.0 8.0 0.00 0.00 0.00 64 1018.6
20260505031303 46 225 5.0 7.0 0.00 0.00 0.00 64 1018.6
20260505030303 46 225 7.0 8.0 0.00 0.00 0.00 66 1018.6
20260505025803 47 225 6.0 8.0 0.00 0.00 0.00 63 1018.9
20260505025304 47 225 9.0 14.0 0.00 0.00 0.00 61 1018.9
20260505024802 48 217 10.0 16.0 0.00 0.00 0.00 59 1018.9
20260505024303 48 225 12.0 16.0 0.00 0.00 0.00 60 1018.9
20260505023803 48 225 8.0 12.0 0.00 0.00 0.00 60 1018.6
20260505023303 48 225 8.0 12.0 0.00 0.00 0.00 59 1018.6
20260505022803 48 180 10.0 13.0 0.00 0.00 0.00 58 1018.6
20260505021302 49 180 5.0 6.0 0.00 0.00 0.00 57 1018.2
20260505020802 49 90 3.0 6.0 0.00 0.00 0.00 57 1018.2
20260505020303 49 90 6.0 8.0 0.00 0.00 0.00 57 1018.2
20260505015803 50 112 7.0 9.0 0.00 0.00 0.00 55 1018.2
20260505015303 50 270 5.0 6.0 0.00 0.00 0.00 54 1018.0
20260505014303 50 270 3.0 6.0 0.00 0.00 0.00 53 1017.9
20260505013303 51 0 5.0 9.0 0.00 0.00 0.00 51 1017.9
20260505012802 51 315 7.0 12.0 0.00 0.00 0.00 51 1017.9
20260505011303 54 154 5.0 7.0 0.00 0.00 0.00 40 1017.9
20260505010803 54 229 6.0 13.0 0.00 0.00 0.00 40 1017.9
20260505010303 54 251 3.0 7.0 0.00 0.00 0.00 40 1017.6
20260505005304 55 225 3.0 7.0 0.00 0.00 0.00 39 1017.6
20260505004303 55 125 8.0 15.0 0.00 0.00 0.00 40 1017.6
20260505003803 55 225 9.0 16.0 0.00 0.00 0.00 40 1017.6
20260505003303 55 218 6.0 12.0 0.00 0.00 0.00 40 1017.9
20260505002803 55 131 6.0 12.0 0.00 0.00 0.00 40 1017.9
20260505002304 55 226 7.0 13.0 0.00 0.00 0.00 40 1017.9
20260505001803 55 225 13.0 21.0 0.00 0.00 0.00 40 1017.9
20260505001302 56 252 13.0 21.0 0.00 0.00 0.00 39 1017.9
20260505000803 57 286 4.0 12.0 0.00 0.00 0.00 37 1017.9
20260505000303 57 0 3.0 5.0 0.00 0.00 0.00 37 1017.9
20260504235802 57 225 6.0 8.0 0.00 0.00 0.00 37 1017.9
20260504235304 57 45 1.0 3.0 0.00 0.00 0.00 37 1017.9
20260504234803 56 120 1.0 3.0 0.00 0.00 0.00 37 1017.9
20260504234303 56 225 1.0 6.0 0.00 0.00 0.00 37 1017.9
20260504233303 56 146 2.0 6.0 0.00 0.00 0.00 37 1017.9
20260504231802 55 150 2.0 3.0 0.00 0.00 0.00 38 1017.9
20260504231303 55 150 4.0 7.0 0.00 0.00 0.00 38 1017.9
20260504230803 56 90 6.0 13.0 0.00 0.00 0.00 39 1017.9
20260504230303 56 45 8.0 13.0 0.00 0.00 0.00 38 1017.9
20260504225803 56 90 7.0 12.0 0.00 0.00 0.00 38 1017.6
20260504225304 56 45 6.0 12.0 0.00 0.00 0.00 38 1017.9
20260504224304 56 30 3.0 8.0 0.00 0.00 0.00 39 1017.6
20260504223803 56 45 5.0 9.0 0.00 0.00 0.00 38 1017.9
20260504223303 56 90 3.0 12.0 0.00 0.00 0.00 38 1017.9
20260504222802 56 45 6.0 13.0 0.00 0.00 0.00 38 1017.9
20260504222304 56 87 8.0 15.0 0.00 0.00 0.00 38 1017.9
20260504221802 56 76 12.0 16.0 0.00 0.00 0.00 39 1017.9
20260504220803 56 90 6.0 9.0 0.00 0.00 0.00 38 1017.9
20260504220302 56 291 3.0 8.0 0.00 0.00 0.00 39 1018.2
20260504215802 56 45 4.0 10.0 0.00 0.00 0.00 39 1018.2
20260504215304 56 82 9.0 12.0 0.00 0.00 0.00 38 1018.2
20260504214303 55 110 6.0 20.0 0.00 0.00 0.00 38 1018.6
20260504213803 55 157 3.0 12.0 0.00 0.00 0.00 39 1018.6
20260504213302 55 93 1.0 8.0 0.00 0.00 0.00 40 1018.6
20260504212304 56 45 10.0 15.0 0.00 0.00 0.00 39 1018.6
20260504211803 56 45 7.0 9.0 0.00 0.00 0.00 39 1018.9
20260504211302 56 11 6.0 9.0 0.00 0.00 0.00 39 1018.9
20260504210802 56 225 9.0 12.0 0.00 0.00 0.00 39 1018.6
20260504210303 56 198 6.0 10.0 0.00 0.00 0.00 40 1018.9
20260504205304 56 345 6.0 14.0 0.00 0.00 0.00 40 1018.9
20260504204303 55 0 7.0 14.0 0.00 0.00 0.00 42 1019.3
20260504203803 55 314 10.0 16.0 0.00 0.00 0.00 42 1019.3
20260504203303 55 17 12.0 21.0 0.00 0.00 0.00 42 1019.6
20260504202803 55 305 13.0 17.0 0.00 0.00 0.00 41 1019.6
20260504202304 55 276 12.0 22.0 0.00 0.00 0.00 41 1019.3
20260504201803 54 277 12.0 24.0 0.00 0.00 0.00 41 1019.6
20260504201303 54 306 9.0 17.0 0.00 0.00 0.00 42 1019.6
20260504200803 53 260 12.0 22.0 0.00 0.00 0.00 42 1019.6
20260504195803 54 284 12.0 17.0 0.00 0.00 0.00 42 1019.6
20260504194803 54 242 14.0 25.0 0.00 0.00 0.00 43 1019.6
20260504194303 54 250 11.0 23.0 0.00 0.00 0.00 43 1019.6
20260504193803 54 265 14.0 22.0 0.00 0.00 0.00 43 1019.3
20260504193303 54 253 18.0 28.0 0.00 0.00 0.00 42 1019.6
20260504192304 54 265 15.0 22.0 0.00 0.00 0.00 44 1019.6
20260504191803 53 224 14.0 31.0 0.00 0.00 0.00 46 1019.6
20260504191302 52 241 20.0 26.0 0.00 0.00 0.00 49 1019.6
20260504190803 52 236 18.0 28.0 0.00 0.00 0.00 50 1019.6
20260504190303 53 240 14.0 23.0 0.00 0.00 0.00 48 1019.6
20260504185803 54 230 20.0 26.0 0.00 0.00 0.00 44 1019.6
20260504185304 54 264 14.0 26.0 0.00 0.00 0.00 40 1019.6
20260504184803 55 247 17.0 26.0 0.00 0.00 0.00 38 1019.9
20260504184303 56 276 13.0 29.0 0.00 0.00 0.00 37 1019.6
20260504183803 56 242 9.0 15.0 0.00 0.00 0.00 38 1019.9
20260504183302 55 199 3.0 9.0 0.00 0.00 0.00 38 1019.9
20260504182803 55 250 9.0 23.0 0.00 0.00 0.00 38 1019.9
20260504181803 56 255 14.0 22.0 0.00 0.00 0.00 38 1020.3
20260504181303 55 263 6.0 17.0 0.00 0.00 0.00 38 1020.3
20260504180803 55 260 6.0 16.0 0.00 0.00 0.00 38 1020.3
20260504180303 55 245 5.0 14.0 0.00 0.00 0.00 40 1020.3
20260504175803 54 287 8.0 17.0 0.00 0.00 0.00 40 1020.3
20260504175304 54 314 16.0 29.0 0.00 0.00 0.00 39 1020.3
20260504174802 54 311 14.0 24.0 0.00 0.00 0.00 39 1020.3
20260504174303 53 282 9.0 22.0 0.00 0.00 0.00 39 1020.3
20260504173802 53 281 12.0 22.0 0.00 0.00 0.00 38 1020.3
20260504172803 54 263 16.0 24.0 0.00 0.00 0.00 39 1020.3
20260504172304 54 253 12.0 17.0 0.00 0.00 0.00 39 1020.3
20260504171802 54 241 13.0 22.0 0.00 0.00 0.00 40 1020.3
20260504171303 54 270 13.0 22.0 0.00 0.00 0.00 40 1020.3
20260504170803 54 242 16.0 22.0 0.00 0.00 0.00 39 1020.3
20260504170303 53 269 14.0 26.0 0.00 0.00 0.00 39 1020.3